"2016-03-14 00:00:00",1455771,7.603,329.7,2.697,0.442,14.62,105.224,12.65,13.66,19.39,0,110.5,13.17,13.44,291.7
"2016-03-14 00:00:30",1455772,7.348,331.4,1.969,0.256,14.79,105.2268,12.65,13.66,19.56,0,110.5,13.18,13.45,293.4
"2016-03-14 00:01:00",1455773,7.284,328.7,1.571,0.258,14.94,105.2291,12.66,13.66,19.87,0,110.5,13.18,13.46,290.7
"2016-03-14 00:01:30",1455774,8.01,331.7,5.237,1.248,16.62,105.2323,12.67,13.77,20.09,0,110.5,13.13,13.46,293.7
"2016-03-14 00:02:00",1455775,7.659,333.9,8.52,1.274,17,105.2317,12.67,13.85,20.01,0,110.5,13.13,13.46,295.9
"2016-03-14 00:02:30",1455776,7.452,331.2,5.304,0.707,15.56,105.2326,12.67,13.72,19.86,0,110.5,13.13,13.46,293.2
"2016-03-14 00:03:00",1455777,8.27,334.4,6.734,1.375,16.96,105.2346,12.67,13.88,19.78,0,110.4,13.12,13.47,296.4
"2016-03-14 00:03:30",1455778,8.17,335.4,7.198,1.287,16.68,105.2388,12.68,13.88,19.56,0,110.5,13.12,13.48,297.4
"2016-03-14 00:04:00",1455779,8.12,335.9,6.308,1.344,16.45,105.2418,12.69,13.79,19.36,0,110.5,13.12,13.49,297.9
"2016-03-14 00:04:30",1455780,7.011,326.8,3.839,0.566,14.81,105.2463,12.7,13.75,19.27,0,110.5,13.17,13.50,288.8
"2016-03-14 00:05:00",1455781,7.613,330.6,1.927,0.258,14.47,105.2459,12.7,13.7,19.25,0,110.5,13.17,13.50,292.6
"2016-03-14 00:05:30",1455782,7.603,325.4,3,0.389,14.63,105.2456,12.7,13.7,19.51,0,110.5,13.17,13.50,287.4
"2016-03-14 00:06:00",1455783,8.43,331.7,8.68,1.297,16.03,105.2448,12.7,13.75,19.73,0,110.5,13.12,13.50,293.7
"2016-03-14 00:06:30",1455784,9.34,339.1,7.526,1.596,17.16,105.2447,12.7,13.95,19.93,0,110.5,13.12,13.50,301.1
"2016-03-14 00:07:00",1455785,8.81,337.7,5.377,1.092,15.41,105.2558,12.73,13.73,19.71,0,110.5,13.12,13.52,299.7
"2016-03-14 00:07:30",1455786,10.5,344.4,7.229,1.496,17.49,105.2645,12.75,13.88,19.88,0,110.5,13.12,13.55,306.4
"2016-03-14 00:08:00",1455787,9.29,339.9,6.549,1.128,16.04,105.2684,12.76,13.86,19.48,0,110.5,13.12,13.56,301.9
"2016-03-14 00:08:30",1455788,8.08,334,2.07,0.254,14.51,105.2747,12.78,13.77,19.26,0,110.5,13.17,13.57,296.0
"2016-03-14 00:09:00",1455789,8.19,334,2.779,0.232,14.52,105.2774,12.78,13.77,19.2,0,110.5,13.17,13.58,296.0
"2016-03-14 00:09:30",1455790,9.73,340.6,6.946,1.345,16.05,105.2786,12.79,13.87,19.28,0,110.5,13.12,13.58,302.6
"2016-03-14 00:10:00",1455791,10.68,344.5,7.618,1.473,17.46,105.2774,12.78,13.99,19.45,0,110.5,13.12,13.58,306.5
"2016-03-14 00:10:30",1455792,10.59,346.2,7.561,1.551,18.07,105.2777,12.78,13.97,19.44,0,110.5,13.12,13.58,308.2
"2016-03-14 00:11:00",1455793,8.99,339.7,5.783,0.904,15.65,105.2774,12.78,13.91,19.29,0,110.5,13.12,13.58,301.7
"2016-03-14 00:11:30",1455794,9.13,339.9,6.241,1.119,16.04,105.2774,12.78,13.92,19.27,0,110.5,13.12,13.58,301.9
"2016-03-14 00:12:00",1455795,9.55,344.5,7.09,1.298,16.51,105.2774,12.78,13.99,19.41,0,110.5,13.12,13.58,306.5
"2016-03-14 00:12:30",1455796,8.71,337.2,1.645,0.304,14.34,105.2774,12.78,13.8,19.26,0,110.5,13.17,13.58,299.2
"2016-03-14 00:13:00",1455797,8.28,337.5,1.675,0.14,14.43,105.2774,12.78,13.8,19.18,0,110.5,13.17,13.58,299.5
"2016-03-14 00:13:30",1455798,8.45,339.3,1.268,0.222,14.63,105.2774,12.78,13.81,19.15,0,110.5,13.17,13.58,301.3
"2016-03-14 00:14:00",1455799,8.43,339.6,5.827,1.056,15.68,105.2774,12.78,13.82,19.12,0,110.5,13.12,13.58,301.6
"2016-03-14 00:14:30",1455800,8.7,341.3,6.89,1.366,17.12,105.2774,12.78,14.01,19.3,0,110.5,13.12,13.58,303.3
"2016-03-14 00:15:00",1455801,8.24,340.7,6.172,1.259,16,105.2774,12.78,13.84,19.12,0,110.5,13.12,13.58,302.7
"2016-03-14 00:15:30",1455802,9.65,349.4,8.37,1.435,18.21,105.2774,12.78,14.02,19.3,0,110.5,13.12,13.58,311.4
"2016-03-14 00:16:00",1455803,10.03,345.6,7.965,1.489,17.66,105.2774,12.78,13.99,19.25,0,110.5,13.12,13.58,307.6
"2016-03-14 00:16:30",1455804,8.68,338.4,6.702,1.223,16.22,105.2774,12.78,13.9,19.1,0,110.5,13.12,13.58,300.4
"2016-03-14 00:17:00",1455805,8.11,338.6,1.772,0.225,14.47,105.2774,12.78,13.81,18.98,0,110.5,13.17,13.58,300.6
"2016-03-14 00:17:30",1455806,8.19,336.4,1.726,0.287,14.56,105.2774,12.78,13.82,19.02,0,110.5,13.17,13.58,298.4
"2016-03-14 00:18:00",1455807,9.49,340.2,6.189,1.166,15.73,105.2774,12.78,13.84,19.1,0,110.5,13.12,13.58,302.2
"2016-03-14 00:18:30",1455808,10.91,345.2,6.667,1.458,18.08,105.2774,12.78,13.99,19.32,0,110.5,13.12,13.58,307.2
"2016-03-14 00:19:00",1455809,8.71,332.9,1.606,0.392,15.17,105.2774,12.78,13.82,19.01,0,110.5,13.12,13.58,294.9
"2016-03-14 00:19:30",1455810,9.66,338.5,8.06,1.424,17.02,105.2768,12.78,13.94,19.21,0,110.4,13.12,13.58,300.5
"2016-03-14 00:20:00",1455811,10.03,343.6,7.383,1.442,18.41,105.2723,12.77,14.05,19.37,0,110.5,13.12,13.57,305.6
"2016-03-14 00:20:30",1455812,9.14,338.2,6.646,1.38,17.02,105.2658,12.75,13.91,19.27,0,110.5,13.12,13.55,300.2
"2016-03-14 00:21:00",1455813,8.1,333.5,1.364,0.383,14.85,105.2605,12.74,13.76,19.12,0,110.5,13.16,13.54,295.5
"2016-03-14 00:21:30",1455814,7.919,332.5,4.424,0.207,15.03,105.2478,12.71,13.77,19.11,0,110.5,13.16,13.50,294.5
"2016-03-14 00:22:00",1455815,7.874,327.1,7.848,1.448,16.72,105.2436,12.7,13.85,19.1,0,110.5,13.11,13.49,289.1
"2016-03-14 00:22:30",1455816,9,334.5,11.04,1.478,17.39,105.2436,12.7,13.92,19.17,0,110.5,13.11,13.49,296.5
"2016-03-14 00:23:00",1455817,9.24,337.9,5.556,1.532,17.7,105.2436,12.7,13.86,19.11,0,110.5,13.11,13.49,299.9
"2016-03-14 00:23:30",1455818,10.07,333.1,8.58,1.614,16.71,105.2419,12.69,13.82,19.24,0,110.5,13.11,13.49,295.1
"2016-03-14 00:24:00",1455819,10.05,328.4,8.79,1.66,18.05,105.2351,12.67,13.89,19.3,0,110.5,13.11,13.47,290.4
"2016-03-14 00:24:30",1455820,7.355,325.8,11.45,1.186,16.67,105.2272,12.65,13.87,19.37,0,110.5,13.11,13.45,287.8
"2016-03-14 00:25:00",1455821,8.19,325.3,6.815,0.619,15.45,105.2123,12.62,13.71,19.24,0,110.5,13.11,13.41,287.3
"2016-03-14 00:25:30",1455822,7.624,334.2,5.42,0.866,14.96,105.2097,12.61,13.66,19.25,0,110.5,13.17,13.41,296.2
"2016-03-14 00:26:00",1455823,9.52,340.7,7.326,1.455,17.84,105.2097,12.61,13.83,19.51,0,110.5,13.12,13.41,302.7
"2016-03-14 00:26:30",1455824,9.44,340.3,8.1,1.265,17.16,105.2101,12.61,13.75,19.47,0,110.5,13.12,13.41,302.3
"2016-03-14 00:27:00",1455825,8.45,340.1,6.474,1.519,17.07,105.1951,12.57,13.73,19.48,0,110.5,13.12,13.37,302.1
"2016-03-14 00:27:30",1455826,7.234,341.5,7.621,1.299,16.59,105.1771,12.53,13.75,19.5,0,110.5,13.12,13.32,303.5
"2016-03-14 00:28:00",1455827,6.807,338,3.488,0.294,14.78,105.1762,12.52,13.62,19.42,0,110.5,13.17,13.32,300.0
"2016-03-14 00:28:30",1455828,8.2,346.4,7.692,1.45,17.13,105.1786,12.53,13.83,19.64,0,110.5,13.12,13.33,308.4
"2016-03-14 00:29:00",1455829,8,342.2,6.545,1.107,16.16,105.1792,12.53,13.67,19.62,0,110.5,13.12,13.33,304.2
"2016-03-14 00:29:30",1455830,6.892,337.9,2.004,0.337,15.12,105.1784,12.53,13.56,19.47,0,110.5,13.13,13.32,299.9
"2016-03-14 00:30:00",1455831,8.03,346.6,7.016,1.416,16.98,105.1682,12.5,13.72,19.66,0,110.5,13.12,13.30,308.6
"2016-03-14 00:30:30",1455832,9.08,350.5,7.328,1.314,18.4,105.1558,12.47,13.76,19.72,0,110.5,13.12,13.27,312.5
"2016-03-14 00:31:00",1455833,9,338.5,8.74,1.023,17.32,105.1468,12.45,13.64,19.54,0,110.5,13.13,13.24,300.5
"2016-03-14 00:31:30",1455834,8.97,323.3,5.439,0.75,15.58,105.1495,12.46,13.59,19.46,0,110.5,13.17,13.25,285.3
"2016-03-14 00:32:00",1455835,7.193,333.9,4.391,0.725,14.84,105.1498,12.46,13.53,19.37,0,110.5,13.17,13.25,295.9
"2016-03-14 00:32:30",1455836,8.28,340.6,4.275,0.942,15.65,105.1484,12.45,13.6,19.63,0,110.5,13.13,13.25,302.6
"2016-03-14 00:33:00",1455837,8.7,338.8,7.619,1.456,17.33,105.1423,12.44,13.57,19.68,0,110.5,13.13,13.23,300.8
"2016-03-14 00:33:30",1455838,6.033,330,4.311,1.062,15.92,105.1353,12.42,13.57,19.7,0,110.5,13.13,13.21,292.0
"2016-03-14 00:34:00",1455839,8.7,345.1,6.698,1.385,17.8,105.1363,12.42,13.61,19.75,0,110.5,13.13,13.22,307.1
"2016-03-14 00:34:30",1455840,8.84,339.4,6.624,1.477,17.17,105.1244,12.39,13.62,19.79,0,110.5,13.13,13.19,301.4
"2016-03-14 00:35:00",1455841,8.34,340.3,7.354,1.553,17.54,105.1216,12.38,13.57,19.74,0,110.5,13.13,13.18,302.3
"2016-03-14 00:35:30",1455842,6.945,331.7,1.787,0.251,14.69,105.1204,12.38,13.43,19.63,0,110.5,13.18,13.18,293.7
"2016-03-14 00:36:00",1455843,7.234,334.5,2.172,0.153,14.62,105.1216,12.38,13.41,19.68,0,110.5,13.18,13.18,296.5
"2016-03-14 00:36:30",1455844,7.043,331.7,1.738,0.139,14.8,105.1225,12.39,13.42,19.7,0,110.5,13.18,13.18,293.7
"2016-03-14 00:37:00",1455845,7.857,335.8,5.581,0.855,15.77,105.1225,12.39,13.5,19.79,0,110.5,13.13,13.18,297.8
"2016-03-14 00:37:30",1455846,9.5,342.4,7.586,1.499,18.17,105.1263,12.4,13.58,19.9,0,110.5,13.13,13.19,304.4
"2016-03-14 00:38:00",1455847,9.74,341.2,7.652,1.49,18.28,105.1243,12.39,13.57,19.91,0,110.5,13.12,13.19,303.2
"2016-03-14 00:38:30",1455848,9.43,345.7,8.17,1.429,18.5,105.1248,12.39,13.61,20.01,0,110.5,13.12,13.19,307.7
"2016-03-14 00:39:00",1455849,8.01,338.5,7.229,1.231,16.13,105.1223,12.39,13.48,19.96,0,110.4,13.12,13.18,300.5
"2016-03-14 00:39:30",1455850,6.867,334.7,1.726,0.217,14.55,105.1178,12.37,13.39,19.9,0,110.4,13.17,13.17,296.7
"2016-03-14 00:40:00",1455851,6.72,341.8,2.019,0.237,14.55,105.1169,12.37,13.37,19.93,0,110.4,13.17,13.17,303.8
"2016-03-14 00:40:30",1455852,7.004,339.6,1.496,0.153,14.92,105.1107,12.36,13.37,19.92,0,110.4,13.17,13.15,301.6
"2016-03-14 00:41:00",1455853,7.218,339.4,0.928,0.163,15.18,105.0986,12.32,13.36,19.89,0,110.4,13.17,13.12,301.4
"2016-03-14 00:41:30",1455854,7.929,342.3,7.901,1.321,17.59,105.0952,12.32,13.56,20.09,0,110.4,13.12,13.11,304.3
"2016-03-14 00:42:00",1455855,8.78,347.8,7.26,1.433,19.08,105.0975,12.32,13.63,20.19,0,110.4,13.13,13.12,309.8
"2016-03-14 00:42:30",1455856,8.31,347.3,8.93,1.503,18.2,105.0984,12.32,13.53,20.12,0,110.4,13.13,13.12,309.3
"2016-03-14 00:43:00",1455857,7.38,344.5,13.15,1.264,16.31,105.0993,12.33,13.45,19.8,0,110.4,13.14,13.12,306.5
"2016-03-14 00:43:30",1455858,6.161,325.4,4.961,0.637,14.8,105.1023,12.33,13.33,19.3,0,110.4,13.18,13.13,287.4
"2016-03-14 00:44:00",1455859,6.437,326,6.723,0.527,14.84,105.0981,12.32,13.32,19.15,0,110.4,13.18,13.12,288.0
"2016-03-14 00:44:30",1455860,6.616,337.7,5.312,0.559,15.01,105.0917,12.31,13.31,19.17,0,110.4,13.19,13.10,299.7
"2016-03-14 00:45:00",1455861,6.534,333.6,5.762,0.475,15.28,105.0878,12.3,13.3,19.03,0,110.4,13.19,13.09,295.6
"2016-03-14 00:45:30",1455862,6.198,330.8,4.064,0.327,15.48,105.085,12.29,13.3,18.96,0,110.4,13.19,13.08,292.8
"2016-03-14 00:46:00",1455863,7.676,334.2,7.112,1.575,17.09,105.0832,12.29,13.44,19.34,0,110.4,13.14,13.08,296.2
"2016-03-14 00:46:30",1455864,9.66,342.8,7.633,1.371,19.28,105.08,12.28,13.57,19.76,0,110.4,13.14,13.07,304.8
"2016-03-14 00:47:00",1455865,9.42,345.5,6.987,1.377,19.22,105.0817,12.28,13.53,20.01,0,110.4,13.14,13.08,307.5
"2016-03-14 00:47:30",1455866,7.888,340.5,7.832,1.428,16.68,105.085,12.29,13.38,19.89,0,110.4,13.14,13.08,302.5
"2016-03-14 00:48:00",1455867,6.633,332.6,1.463,0.24,14.63,105.0865,12.29,13.29,19.8,0,110.4,13.19,13.09,294.6
"2016-03-14 00:48:30",1455868,6.832,332.3,2.72,0.196,14.75,105.0882,12.3,13.29,19.69,0,110.4,13.19,13.09,294.3
"2016-03-14 00:49:00",1455869,6.698,332.1,1.906,0.131,14.99,105.0922,12.31,13.29,19.65,0,110.4,13.19,13.10,294.1
"2016-03-14 00:49:30",1455870,6.866,334.2,1.531,0.188,15.16,105.0944,12.31,13.29,19.7,0,110.4,13.19,13.11,296.2
"2016-03-14 00:50:00",1455871,7.399,336.9,6.403,1.219,16.7,105.1001,12.33,13.4,19.87,0,110.4,13.14,13.12,298.9
"2016-03-14 00:50:30",1455872,8.1,340,7.17,1.445,17.81,105.1023,12.33,13.46,19.9,0,110.4,13.14,13.13,302.0
"2016-03-14 00:51:00",1455873,8.85,342.4,6.897,1.274,19.2,105.1037,12.34,13.56,19.99,0,110.4,13.14,13.13,304.4
"2016-03-14 00:51:30",1455874,7.595,337.5,7.457,1.409,17.53,105.1048,12.34,13.47,19.92,0,110.4,13.14,13.14,299.5
"2016-03-14 00:52:00",1455875,6.515,331.8,1.507,0.116,14.75,105.106,12.34,13.33,19.78,0,110.4,13.19,13.14,293.8
"2016-03-14 00:52:30",1455876,6.196,334.9,1.627,0.19,14.63,105.1083,12.35,13.31,19.74,0,110.4,13.19,13.14,296.9
"2016-03-14 00:53:00",1455877,6.15,338.6,2.39,0.208,14.7,105.1066,12.35,13.32,19.78,0,110.4,13.19,13.14,300.6
"2016-03-14 00:53:30",1455878,6.372,340.8,1.785,0.302,14.95,105.1072,12.35,13.32,19.82,0,110.4,13.19,13.14,302.8
"2016-03-14 00:54:00",1455879,7.754,343.7,7.388,1.369,17.36,105.1043,12.34,13.43,19.98,0,110.4,13.14,13.13,305.7
"2016-03-14 00:54:30",1455880,7.938,341.2,9.77,1.64,18.27,105.0998,12.33,13.53,19.98,0,110.4,13.14,13.12,303.2
"2016-03-14 00:55:00",1455881,8.15,343.6,8.69,1.465,18.12,105.0925,12.31,13.51,19.78,0,110.4,13.13,13.10,305.6
"2016-03-14 00:55:30",1455882,6.961,343,6.188,1.314,16.02,105.0902,12.3,13.43,19.84,0,110.4,13.13,13.10,305.0
"2016-03-14 00:56:00",1455883,6.193,343.7,6.375,1.486,15.85,105.0891,12.3,13.41,19.94,0,110.4,13.13,13.10,305.7
"2016-03-14 00:56:30",1455884,5.761,333.3,2.713,0.31,14.73,105.0815,12.28,13.3,19.82,0,110.4,13.17,13.08,295.3
"2016-03-14 00:57:00",1455885,5.447,334.3,4.301,0.448,15.01,105.0761,12.27,13.29,19.67,0,110.4,13.18,13.06,296.3
"2016-03-14 00:57:30",1455886,5.317,337.9,5.256,0.186,15.21,105.0761,12.27,13.3,19.66,0,110.4,13.18,13.06,299.9
"2016-03-14 00:58:00",1455887,6.491,340.1,7.903,1.44,17.68,105.0761,12.27,13.49,19.81,0,110.4,13.13,13.06,302.1
"2016-03-14 00:58:30",1455888,6.433,346,6.96,1.499,17.68,105.0744,12.26,13.4,19.77,0,110.4,13.13,13.06,308.0
"2016-03-14 00:59:00",1455889,6.512,351.5,7.678,1.47,17.74,105.0697,12.25,13.47,19.88,0,110.4,13.14,13.05,313.5
"2016-03-14 00:59:30",1455890,5.081,346.4,1.094,0.106,14.6,105.0609,12.23,13.27,19.77,0,110.4,13.14,13.02,308.4
"2016-03-14 01:00:00",1455891,5.689,350.5,7.079,1.247,15.86,105.0493,12.2,13.35,19.9,0,110.4,13.14,12.99,312.5
"2016-03-14 01:00:30",1455892,5.845,352.7,6.961,1.323,16.33,105.0429,12.18,13.42,20.04,0,110.4,13.14,12.98,314.7
"2016-03-14 01:01:00",1455893,4.916,348.7,1.031,0.091,14.59,105.0423,12.18,13.24,19.9,0,110.4,13.19,12.98,310.7
"2016-03-14 01:01:30",1455894,5.044,349.4,1.148,0.145,14.74,105.0423,12.18,13.23,19.99,0,110.4,13.19,12.98,311.4
"2016-03-14 01:02:00",1455895,5.671,352.3,5.977,1.276,16.74,105.0403,12.18,13.38,20.2,0,110.4,13.14,12.97,314.3
"2016-03-14 01:02:30",1455896,6.288,357.2,7.015,1.385,17.93,105.0333,12.16,13.38,20.1,0,110.4,13.14,12.95,319.2
"2016-03-14 01:03:00",1455897,5.571,358,8.02,1.301,17.28,105.0243,12.13,13.4,20.19,0,110.4,13.14,12.93,320.0
"2016-03-14 01:03:30",1455898,4.644,351.3,4.357,0.681,14.64,105.011,12.1,13.19,20.03,0,110.4,13.15,12.89,313.3
"2016-03-14 01:04:00",1455899,4.348,353,2.382,0.544,14.21,105.009,12.1,13.19,20.05,0,110.4,13.19,12.89,315.0
"2016-03-14 01:04:30",1455900,5.884,349.8,3.902,0.783,14.8,105.0096,12.1,13.25,20.3,0,110.4,13.15,12.89,311.8
"2016-03-14 01:05:00",1455901,7.14,354.5,7.628,1.431,16.75,105.0063,12.09,13.27,20.53,0,110.4,13.15,12.88,316.5
"2016-03-14 01:05:30",1455902,5.942,351,5.48,1.109,15.87,104.9977,12.07,13.26,20.68,0,110.4,13.15,12.86,313.0
"2016-03-14 01:06:00",1455903,6.947,356.8,7.712,1.47,17.64,104.9851,12.03,13.3,20.69,0,110.4,13.15,12.83,318.8
"2016-03-14 01:06:30",1455904,6.928,356.2,7.658,1.431,17.1,104.982,12.03,13.28,20.76,0,110.4,13.15,12.82,318.2
"2016-03-14 01:07:00",1455905,6.662,354.6,6.976,1.425,16.79,104.9835,12.03,13.27,20.81,0,110.4,13.15,12.82,316.6
"2016-03-14 01:07:30",1455906,5.1,351.8,2.042,0.466,14.13,104.9753,12.01,13.06,20.63,0,110.4,13.19,12.80,313.8
"2016-03-14 01:08:00",1455907,4.185,354.8,5.483,0.932,13.99,104.9616,11.97,13.05,20.72,0,110.4,13.19,12.77,316.8
"2016-03-14 01:08:30",1455908,1.812,13.78,7.075,0.365,13.75,104.9523,11.95,13.03,21.24,0,110.4,13.2,12.74,335.8
"2016-03-14 01:09:00",1455909,1.441,7.159,12.24,0.792,13.89,104.9515,11.95,13.02,21.78,0,110.4,13.15,12.74,329.2
"2016-03-14 01:09:30",1455910,3.131,16.82,12.69,1.201,16.29,104.9356,11.91,13.17,22.07,0,110.4,13.15,12.70,338.8
"2016-03-14 01:10:00",1455911,2.943,19.57,10.18,1.524,16.86,104.9247,11.88,13.17,22.1,0,110.4,13.15,12.67,341.6
"2016-03-14 01:10:30",1455912,5.044,36.99,13.49,1.401,16.29,104.9259,11.88,13.07,22.23,0,110.4,13.15,12.68,359.0
"2016-03-14 01:11:00",1455913,3.024,27.26,21.69,1.589,16.03,104.9098,11.84,13.13,22.69,0,110.4,13.14,12.63,349.3
"2016-03-14 01:11:30",1455914,3.377,36.3,12.72,0.718,14.23,104.8938,11.8,12.93,22.54,0,110.4,13.15,12.59,358.3
"2016-03-14 01:12:00",1455915,3.075,29.74,5.046,0.433,13.42,104.8855,11.78,12.87,22.57,0,110.4,13.19,12.57,351.7
"2016-03-14 01:12:30",1455916,3.349,29.45,7.676,0.667,13.49,104.8664,11.73,12.83,22.62,0,110.4,13.19,12.52,351.5
"2016-03-14 01:13:00",1455917,4.081,40.96,14.73,1.27,13.76,104.8566,11.71,12.81,22.62,0,110.4,13.19,12.50,3.0
"2016-03-14 01:13:30",1455918,2.673,71.7,26.61,1.604,14.53,104.8358,11.65,12.8,22.68,0,110.4,13.15,12.44,33.7
"2016-03-14 01:14:00",1455919,5.036,73.67,13.6,1.558,17.15,104.8234,11.62,12.92,22.48,0,110.4,13.14,12.41,35.7
"2016-03-14 01:14:30",1455920,6.576,55.86,8.83,1.424,17.99,104.802,11.57,12.92,22.89,0,110.4,13.15,12.36,17.9
"2016-03-14 01:15:00",1455921,6.076,54.38,8.99,1.207,17.23,104.7979,11.56,12.85,22.82,0,110.4,13.14,12.35,16.4
"2016-03-14 01:15:30",1455922,5.352,52.16,8.62,1.716,15.46,104.7756,11.5,12.72,22.73,0,110.4,13.15,12.29,14.2
"2016-03-14 01:16:00",1455923,3.995,60.29,12.1,1.056,13.87,104.7703,11.48,12.59,22.67,0,110.4,13.19,12.28,22.3
"2016-03-14 01:16:30",1455924,4.588,40.84,5.887,0.334,13.75,104.7492,11.43,12.55,22.66,0,110.4,13.2,12.22,2.8
"2016-03-14 01:17:00",1455925,4.948,47.6,11.21,0.734,13.96,104.7393,11.41,12.51,22.61,0,110.4,13.2,12.20,9.6
"2016-03-14 01:17:30",1455926,4.448,56.53,8.98,0.934,14.81,104.7297,11.38,12.47,22.43,0,110.4,13.15,12.17,18.5
"2016-03-14 01:18:00",1455927,4.821,54.95,27.62,1.421,17.24,104.7103,11.33,12.64,22.77,0,110.4,13.15,12.12,17.0
"2016-03-14 01:18:30",1455928,3.207,31.89,14.89,1.29,16.99,104.7055,11.32,12.62,22.76,0,110.4,13.15,12.11,353.9
"2016-03-14 01:19:00",1455929,4.283,75.22,17.11,1.611,16.54,104.7035,11.31,12.5,22.59,0,110.4,13.16,12.11,37.2
"2016-03-14 01:19:30",1455930,4.491,77.21,16.75,1.35,15.63,104.6866,11.27,12.5,22.63,0,110.4,13.16,12.06,39.2
"2016-03-14 01:20:00",1455931,4.837,72.98,8.42,1.385,15.53,104.675,11.24,12.41,22.29,0,110.4,13.15,12.03,35.0
"2016-03-14 01:20:30",1455932,3.404,45.64,10.24,0.418,13.9,104.6716,11.23,12.32,22.52,0,110.4,13.2,12.02,7.6
"2016-03-14 01:21:00",1455933,4.722,59.6,3.419,0.51,13.95,104.6716,11.23,12.31,22.57,0,110.4,13.2,12.02,21.6
"2016-03-14 01:21:30",1455934,4.316,47.13,6.79,0.542,14.18,104.6716,11.23,12.3,22.64,0,110.4,13.2,12.02,9.1
"2016-03-14 01:22:00",1455935,4.613,62.94,7.79,1.432,15.91,104.6708,11.23,12.36,22.51,0,110.4,13.16,12.02,24.9
"2016-03-14 01:22:30",1455936,3.663,85.7,16.1,1.725,17.93,104.662,11.21,12.54,22.64,0,110.4,13.16,12.00,47.7
"2016-03-14 01:23:00",1455937,5.715,94,10.68,1.394,17.39,104.6527,11.18,12.43,22.25,0,110.4,13.16,11.97,56.0
"2016-03-14 01:23:30",1455938,5.907,93.7,8.64,1.621,17.04,104.6527,11.18,12.38,22.05,0,110.4,13.16,11.97,55.7
"2016-03-14 01:24:00",1455939,5.258,91.6,9.22,1.251,15.81,104.6527,11.18,12.34,21.97,0,110.4,13.16,11.97,53.6
"2016-03-14 01:24:30",1455940,5.666,80.4,7.978,0.908,14.75,104.6468,11.17,12.27,21.94,0,110.4,13.16,11.96,42.4
"2016-03-14 01:25:00",1455941,4.608,78.51,8.19,0.65,14.08,104.6462,11.17,12.21,22.05,0,110.4,13.2,11.96,40.5
"2016-03-14 01:25:30",1455942,4.422,78.47,7.813,0.528,14.18,104.642,11.16,12.2,21.86,0,110.3,13.21,11.95,40.5
"2016-03-14 01:26:00",1455943,5.872,97.7,7.271,1.113,16.05,104.6462,11.17,12.31,22,0,110.4,13.16,11.96,59.7
"2016-03-14 01:26:30",1455944,5.879,80.5,11.39,1.643,17.11,104.6508,11.18,12.39,22.28,0,110.3,13.16,11.97,42.5
"2016-03-14 01:27:00",1455945,4.783,89.8,12.02,1.353,16.28,104.6539,11.19,12.32,22.18,0,110.4,13.16,11.98,51.8
"2016-03-14 01:27:30",1455946,5.561,89.7,7.479,1.437,17.1,104.6525,11.18,12.39,21.99,0,110.3,13.16,11.97,51.7
"2016-03-14 01:28:00",1455947,6.034,92.6,7.664,1.351,17.33,104.6519,11.18,12.35,21.95,0,110.3,13.15,11.97,54.6
"2016-03-14 01:28:30",1455948,4.332,76.86,8.03,1.272,15.79,104.6522,11.18,12.3,22.07,0,110.3,13.15,11.97,38.9
"2016-03-14 01:29:00",1455949,3.587,63.34,3.734,0.324,13.92,104.6567,11.19,12.19,22.08,0,110.3,13.2,11.99,25.3
"2016-03-14 01:29:30",1455950,3.195,69.1,3.9,0.24,13.97,104.6598,11.2,12.21,22.05,0,110.3,13.2,11.99,31.1
"2016-03-14 01:30:00",1455951,2.762,61.93,5.713,0.433,14.17,104.6612,11.21,12.21,22.16,0,110.3,13.2,12.00,23.9
"2016-03-14 01:30:30",1455952,2.953,78.86,16.82,1.222,15.74,104.662,11.21,12.32,22.25,0,110.3,13.15,12.00,40.9
"2016-03-14 01:31:00",1455953,3.385,89.5,7.629,1.259,16.17,104.6632,11.21,12.38,22.28,0,110.3,13.15,12.00,51.5
"2016-03-14 01:31:30",1455954,3.309,86.2,9.69,0.95,15.35,104.6632,11.21,12.32,21.98,0,110.3,13.16,12.00,48.2
"2016-03-14 01:32:00",1455955,4.488,93,8.47,1.459,17.4,104.6652,11.22,12.36,21.92,0,110.3,13.15,12.01,55.0
"2016-03-14 01:32:30",1455956,3.624,92.3,5.501,0.861,15.46,104.6677,11.22,12.32,22.05,0,110.3,13.15,12.01,54.3
"2016-03-14 01:33:00",1455957,5.53,85.4,9.37,1.745,16.97,104.6691,11.23,12.44,21.93,0,110.3,13.16,12.02,47.4
"2016-03-14 01:33:30",1455958,4.319,73.04,10.86,1.077,14.51,104.6703,11.23,12.25,21.64,0,110.3,13.16,12.02,35.0
"2016-03-14 01:34:00",1455959,3.298,69.63,12.34,0.337,13.91,104.672,11.23,12.23,21.38,0,110.3,13.21,12.02,31.6
"2016-03-14 01:34:30",1455960,3.014,51.8,4.029,0.212,14.03,104.6712,11.23,12.23,21.67,0,110.3,13.21,12.02,13.8
"2016-03-14 01:35:00",1455961,2.882,60.33,5.176,0.368,14.19,104.6724,11.23,12.23,21.77,0,110.4,13.21,12.03,22.3
"2016-03-14 01:35:30",1455962,3.984,77.77,7.817,1.615,17.12,104.6704,11.23,12.46,22.13,0,110.3,13.17,12.02,39.8
"2016-03-14 01:36:00",1455963,3.284,81.7,8.23,0.917,15.25,104.6736,11.24,12.32,21.91,0,110.3,13.17,12.03,43.7
"2016-03-14 01:36:30",1455964,4.836,80.4,10.4,1.543,17.59,104.6722,11.23,12.43,21.96,0,110.3,13.17,12.02,42.4
"2016-03-14 01:37:00",1455965,4.288,80.2,7.247,1.1,16.3,104.6735,11.24,12.34,21.76,0,110.3,13.17,12.03,42.2
"2016-03-14 01:37:30",1455966,3.845,86,12.96,1.179,16.12,104.6732,11.24,12.33,21.77,0,110.3,13.17,12.03,48.0
"2016-03-14 01:38:00",1455967,3.835,89.2,8.22,1.434,16.23,104.6752,11.24,12.42,21.82,0,110.3,13.17,12.03,51.2
"2016-03-14 01:38:30",1455968,3.645,81.2,5.273,0.2,14.09,104.6744,11.24,12.24,21.59,0,110.3,13.21,12.03,43.2
"2016-03-14 01:39:00",1455969,3.699,88.1,4.132,0.31,14.1,104.6721,11.23,12.24,21.59,0,110.3,13.21,12.02,50.1
"2016-03-14 01:39:30",1455970,3.582,93.1,8.03,0.388,14.23,104.6733,11.24,12.23,21.66,0,110.3,13.21,12.03,55.1
"2016-03-14 01:40:00",1455971,4.354,90.8,9.07,1.452,16.47,104.6771,11.25,12.34,21.91,0,110.3,13.17,12.04,52.8
"2016-03-14 01:40:30",1455972,3.292,89.7,9.05,1.248,16.18,104.6757,11.24,12.36,22.13,0,110.3,13.17,12.03,51.7
"2016-03-14 01:41:00",1455973,3.156,80.3,5.426,1.313,16.03,104.6777,11.25,12.32,22.14,0,110.3,13.17,12.04,42.3
"2016-03-14 01:41:30",1455974,4.007,72.54,5.853,1.37,16.41,104.6749,11.24,12.4,22.17,0,110.3,13.17,12.03,34.5
"2016-03-14 01:42:00",1455975,3.532,78.57,7.186,1.297,16.21,104.6793,11.25,12.28,22.03,0,110.3,13.17,12.04,40.6
"2016-03-14 01:42:30",1455976,4.862,84.1,8.46,1.506,17.02,104.6762,11.24,12.39,21.94,0,110.3,13.17,12.04,46.1
"2016-03-14 01:43:00",1455977,4.4,80.4,8.48,1.138,15.53,104.6748,11.24,12.33,21.62,0,110.3,13.17,12.03,42.4
"2016-03-14 01:43:30",1455978,4.205,67.52,8.78,0.337,13.99,104.6722,11.23,12.24,21.8,0,110.3,13.21,12.02,29.5
"2016-03-14 01:44:00",1455979,4.601,61,3.558,0.448,13.93,104.6717,11.23,12.23,21.95,0,110.3,13.22,12.02,23.0
"2016-03-14 01:44:30",1455980,5.115,67.92,13.24,1.22,15.55,104.6749,11.24,12.34,22.16,0,110.3,13.17,12.03,29.9
"2016-03-14 01:45:00",1455981,5.222,74.53,5.802,1.298,15.66,104.6758,11.24,12.37,21.79,0,110.3,13.16,12.03,36.5
"2016-03-14 01:45:30",1455982,5.231,74.84,11.63,1.456,16.26,104.6784,11.25,12.38,21.66,0,110.3,13.16,12.04,36.8
"2016-03-14 01:46:00",1455983,5.436,54.75,10.7,1.763,16.7,104.6773,11.25,12.44,22.16,0,110.3,13.16,12.04,16.8
"2016-03-14 01:46:30",1455984,5.63,59.98,6.626,1.429,16.11,104.6739,11.24,12.32,22.08,0,110.3,13.16,12.03,22.0
"2016-03-14 01:47:00",1455985,5.719,60.95,11.68,1.481,16.97,104.6686,11.22,12.37,21.84,0,110.3,13.16,12.02,23.0
"2016-03-14 01:47:30",1455986,3.591,35.82,6.123,0.494,13.99,104.6673,11.22,12.21,22.1,0,110.3,13.2,12.01,357.8